Wetterdaten: Mittwoch, 20.10.2010
Datum Zeit Temp. A. Feuchte A. Luftdruck Regen Wind Richtung Richtung Sonnenschein UV Solar Windben
20.10.2010 00:00 7,7 C 90 % 1002,1 hPa 0,0 mm 4,8 km/h (1 Bft) W 270 0 min 0 UV-I 0 W/m 12,9 km/h (3 Bft)
20.10.2010 00:10 7,7 C 90 % 1002,1 hPa 0,0 mm 4,8 km/h (1 Bft) W-SW 247 0 min 0 UV-I 0 W/m 14,5 km/h (3 Bft)
20.10.2010 00:20 7,7 C 90 % 1002,0 hPa 0,0 mm 1,6 km/h (1 Bft) W-SW 247 0 min 0 UV-I 0 W/m 11,3 km/h (2 Bft)
20.10.2010 00:30 7,7 C 90 % 1002,0 hPa 0,0 mm 3,2 km/h (1 Bft) W-SW 247 0 min 0 UV-I 0 W/m 9,7 km/h (2 Bft)
20.10.2010 00:40 7,7 C 90 % 1002,0 hPa 0,0 mm 4,8 km/h (1 Bft) W 270 0 min 0 UV-I 0 W/m 16,1 km/h (3 Bft)
20.10.2010 00:50 7,6 C 90 % 1001,9 hPa 0,0 mm 3,2 km/h (1 Bft) W 270 0 min 0 UV-I 0 W/m 11,3 km/h (2 Bft)
20.10.2010 01:00 7,6 C 90 % 1001,9 hPa 0,0 mm 3,2 km/h (1 Bft) W-SW 247 0 min 0 UV-I 0 W/m 11,3 km/h (2 Bft)
20.10.2010 01:10 7,6 C 90 % 1001,9 hPa 0,0 mm 4,8 km/h (1 Bft) W-SW 247 0 min 0 UV-I 0 W/m 17,7 km/h (3 Bft)
20.10.2010 01:20 7,6 C 90 % 1001,9 hPa 0,0 mm 4,8 km/h (1 Bft) W 270 0 min 0 UV-I 0 W/m 17,7 km/h (3 Bft)
20.10.2010 01:30 7,6 C 90 % 1001,9 hPa 0,0 mm 3,2 km/h (1 Bft) W-SW 247 0 min 0 UV-I 0 W/m 14,5 km/h (3 Bft)
20.10.2010 01:40 7,6 C 90 % 1001,9 hPa 0,0 mm 4,8 km/h (1 Bft) W 270 0 min 0 UV-I 0 W/m 11,3 km/h (2 Bft)
20.10.2010 01:50 7,5 C 90 % 1002,0 hPa 0,0 mm 3,2 km/h (1 Bft) W-SW 247 0 min 0 UV-I 0 W/m 17,7 km/h (3 Bft)
20.10.2010 02:00 7,5 C 90 % 1001,9 hPa 0,0 mm 4,8 km/h (1 Bft) W 270 0 min 0 UV-I 0 W/m 16,1 km/h (3 Bft)
20.10.2010 02:10 7,4 C 90 % 1002,1 hPa 0,0 mm 6,4 km/h (2 Bft) W-SW 247 0 min 0 UV-I 0 W/m 20,9 km/h (4 Bft)
20.10.2010 02:20 7,4 C 90 % 1002,0 hPa 0,0 mm 4,8 km/h (1 Bft) W-SW 247 0 min 0 UV-I 0 W/m 16,1 km/h (3 Bft)
20.10.2010 02:30 7,4 C 90 % 1002,0 hPa 0,0 mm 3,2 km/h (1 Bft) W 270 0 min 0 UV-I 0 W/m 19,3 km/h (3 Bft)
20.10.2010 02:40 7,4 C 90 % 1002,0 hPa 0,0 mm 4,8 km/h (1 Bft) W-SW 247 0 min 0 UV-I 0 W/m 17,7 km/h (3 Bft)
20.10.2010 02:50 7,4 C 90 % 1001,9 hPa 0,0 mm 4,8 km/h (1 Bft) W-SW 247 0 min 0 UV-I 0 W/m 14,5 km/h (3 Bft)
20.10.2010 03:00 7,3 C 90 % 1001,9 hPa 0,0 mm 4,8 km/h (1 Bft) W 270 0 min 0 UV-I 0 W/m 14,5 km/h (3 Bft)
20.10.2010 03:10 7,3 C 90 % 1001,9 hPa 0,0 mm 4,8 km/h (1 Bft) W 270 0 min 0 UV-I 0 W/m 16,1 km/h (3 Bft)
20.10.2010 03:20 7,3 C 90 % 1002,0 hPa 0,0 mm 1,6 km/h (1 Bft) W 270 0 min 0 UV-I 0 W/m 17,7 km/h (3 Bft)
20.10.2010 03:30 7,3 C 90 % 1002,2 hPa 0,0 mm 1,6 km/h (1 Bft) W 270 0 min 0 UV-I 0 W/m 9,7 km/h (2 Bft)
20.10.2010 03:40 7,3 C 90 % 1002,2 hPa 0,0 mm 4,8 km/h (1 Bft) W 270 0 min 0 UV-I 0 W/m 11,3 km/h (2 Bft)
20.10.2010 03:50 7,3 C 90 % 1002,3 hPa 0,3 mm 3,2 km/h (1 Bft) W 270 0 min 0 UV-I 0 W/m 17,7 km/h (3 Bft)
20.10.2010 04:00 7,3 C 90 % 1002,1 hPa 0,3 mm 4,8 km/h (1 Bft) W-SW 247 0 min 0 UV-I 0 W/m 14,5 km/h (3 Bft)
20.10.2010 04:10 7,2 C 90 % 1002,1 hPa 0,0 mm 3,2 km/h (1 Bft) W 270 0 min 0 UV-I 0 W/m 11,3 km/h (2 Bft)
20.10.2010 04:20 7,1 C 90 % 1002,1 hPa 0,0 mm 3,2 km/h (1 Bft) W 270 0 min 0 UV-I 0 W/m 11,3 km/h (2 Bft)
20.10.2010 04:30 7,1 C 90 % 1002,2 hPa 0,0 mm 3,2 km/h (1 Bft) W 270 0 min 0 UV-I 0 W/m 14,5 km/h (3 Bft)
20.10.2010 04:40 7,1 C 91 % 1002,2 hPa 0,0 mm 3,2 km/h (1 Bft) W 270 0 min 0 UV-I 0 W/m 11,3 km/h (2 Bft)
20.10.2010 04:50 7,1 C 91 % 1002,3 hPa 0,0 mm 3,2 km/h (1 Bft) W-SW 247 0 min 0 UV-I 0 W/m 11,3 km/h (2 Bft)
20.10.2010 05:00 7,0 C 91 % 1002,3 hPa 0,0 mm 3,2 km/h (1 Bft) W 270 0 min 0 UV-I 0 W/m 11,3 km/h (2 Bft)
20.10.2010 05:10 7,0 C 91 % 1002,4 hPa 0,0 mm 3,2 km/h (1 Bft) W 270 0 min 0 UV-I 0 W/m 11,3 km/h (2 Bft)
20.10.2010 05:20 7,0 C 91 % 1002,3 hPa 0,3 mm 4,8 km/h (1 Bft) W 270 0 min 0 UV-I 0 W/m 16,1 km/h (3 Bft)
20.10.2010 05:30 6,9 C 91 % 1002,5 hPa 0,0 mm 3,2 km/h (1 Bft) W 270 0 min 0 UV-I 0 W/m 16,1 km/h (3 Bft)
20.10.2010 05:40 6,9 C 91 % 1002,5 hPa 0,0 mm 3,2 km/h (1 Bft) W 270 0 min 0 UV-I 0 W/m 14,5 km/h (3 Bft)
20.10.2010 05:50 6,9 C 91 % 1002,7 hPa 0,0 mm 3,2 km/h (1 Bft) W 270 0 min 0 UV-I 0 W/m 9,7 km/h (2 Bft)
20.10.2010 06:00 6,9 C 91 % 1002,7 hPa 0,0 mm 4,8 km/h (1 Bft) W 270 0 min 0 UV-I 0 W/m 16,1 km/h (3 Bft)
20.10.2010 06:10 6,8 C 91 % 1002,6 hPa 0,0 mm 3,2 km/h (1 Bft) W 270 0 min 0 UV-I 0 W/m 9,7 km/h (2 Bft)
20.10.2010 06:20 6,8 C 91 % 1002,7 hPa 0,0 mm 3,2 km/h (1 Bft) W-SW 247 0 min 0 UV-I 0 W/m 9,7 km/h (2 Bft)
20.10.2010 06:30 6,8 C 91 % 1002,8 hPa 0,0 mm 4,8 km/h (1 Bft) W 270 0 min 0 UV-I 0 W/m 14,5 km/h (3 Bft)
20.10.2010 06:40 6,7 C 91 % 1002,9 hPa 0,0 mm 4,8 km/h (1 Bft) W 270 0 min 0 UV-I 0 W/m 17,7 km/h (3 Bft)
20.10.2010 06:50 6,7 C 91 % 1003,2 hPa 0,0 mm 4,8 km/h (1 Bft) W-SW 247 0 min 0 UV-I 0 W/m 17,7 km/h (3 Bft)
20.10.2010 07:00 6,7 C 91 % 1003,3 hPa 0,0 mm 6,4 km/h (2 Bft) W 270 0 min 0 UV-I 0 W/m 17,7 km/h (3 Bft)
20.10.2010 07:10 6,7 C 91 % 1003,4 hPa 0,0 mm 4,8 km/h (1 Bft) W 270 0 min 0 UV-I 0 W/m 16,1 km/h (3 Bft)
20.10.2010 07:20 6,6 C 91 % 1003,3 hPa 0,0 mm 4,8 km/h (1 Bft) W 270 0 min 0 UV-I 0 W/m 14,5 km/h (3 Bft)
20.10.2010 07:30 6,6 C 91 % 1003,5 hPa 0,0 mm 4,8 km/h (1 Bft) W-SW 247 0 min 0 UV-I 0 W/m 14,5 km/h (3 Bft)
20.10.2010 07:40 6,6 C 91 % 1003,6 hPa 0,0 mm 6,4 km/h (2 Bft) W-SW 247 0 min 0 UV-I 0 W/m 20,9 km/h (4 Bft)
20.10.2010 07:50 6,6 C 91 % 1003,6 hPa 0,0 mm 4,8 km/h (1 Bft) W 270 0 min 0 UV-I 0 W/m 12,9 km/h (3 Bft)
20.10.2010 08:00 6,7 C 91 % 1003,9 hPa 0,0 mm 2,7 km/h (1 Bft) W 263 0 min 0 UV-I 0 W/m 12,9 km/h (3 Bft)
20.10.2010 08:10 6,7 C 91 % 1003,9 hPa 0,0 mm 1,6 km/h (1 Bft) W-NW 292 0 min 0 UV-I 0 W/m 9,7 km/h (2 Bft)
20.10.2010 08:20 6,7 C 91 % 1004,0 hPa 0,0 mm 3,2 km/h (1 Bft) W 270 0 min 0 UV-I 0 W/m 9,7 km/h (2 Bft)
20.10.2010 08:30 6,8 C 91 % 1004,1 hPa 0,0 mm 1,6 km/h (1 Bft) W 270 0 min 0 UV-I 0 W/m 6,4 km/h (2 Bft)
20.10.2010 08:40 6,8 C 91 % 1004,2 hPa 0,0 mm 3,2 km/h (1 Bft) W 270 0 min 0 UV-I 5 W/m 9,7 km/h (2 Bft)
20.10.2010 08:50 6,8 C 91 % 1004,4 hPa 0,0 mm 4,8 km/h (1 Bft) W 270 0 min 0 UV-I 5 W/m 14,5 km/h (3 Bft)
20.10.2010 09:00 6,8 C 91 % 1004,5 hPa 0,0 mm 4,8 km/h (1 Bft) W 270 0 min 0 UV-I 5 W/m 14,5 km/h (3 Bft)
20.10.2010 09:10 6,8 C 91 % 1004,7 hPa 0,3 mm 6,4 km/h (2 Bft) W 270 0 min 0 UV-I 0 W/m 16,1 km/h (3 Bft)
20.10.2010 09:20 6,8 C 91 % 1005,0 hPa 0,0 mm 6,4 km/h (2 Bft) W-NW 292 0 min 0 UV-I 32 W/m 20,9 km/h (4 Bft)
20.10.2010 09:30 6,6 C 91 % 1005,1 hPa 0,3 mm 6,4 km/h (2 Bft) W-NW 292 0 min 0 UV-I 47 W/m 17,7 km/h (3 Bft)
20.10.2010 09:40 6,4 C 91 % 1005,2 hPa 0,3 mm 4,8 km/h (1 Bft) W-NW 292 0 min 0 UV-I 39 W/m 19,3 km/h (3 Bft)
20.10.2010 09:50 6,3 C 91 % 1005,6 hPa 0,0 mm 4,8 km/h (1 Bft) W-NW 292 0 min 0 UV-I 12 W/m 14,5 km/h (3 Bft)
20.10.2010 10:00 6,2 C 91 % 1005,7 hPa 0,0 mm 3,2 km/h (1 Bft) NW 315 0 min 0 UV-I 21 W/m 25,7 km/h (4 Bft)
20.10.2010 10:10 6,2 C 91 % 1006,0 hPa 0,0 mm 1,6 km/h (1 Bft) W-NW 292 0 min 1 UV-I 102 W/m 14,5 km/h (3 Bft)
20.10.2010 10:20 6,3 C 91 % 1006,1 hPa 0,0 mm 1,6 km/h (1 Bft) W-NW 292 0 min 1 UV-I 127 W/m 9,7 km/h (2 Bft)
20.10.2010 10:30 6,3 C 91 % 1006,2 hPa 0,0 mm 1,6 km/h (1 Bft) W-NW 292 0 min 1 UV-I 132 W/m 6,4 km/h (2 Bft)
20.10.2010 10:40 6,3 C 91 % 1006,3 hPa 0,0 mm 0,0 km/h (0 Bft) W-NW 292 0 min 1 UV-I 95 W/m 3,2 km/h (1 Bft)
20.10.2010 10:50 6,4 C 91 % 1006,6 hPa 0,0 mm 0,0 km/h (0 Bft) W-NW 292 0 min 1 UV-I 104 W/m 4,8 km/h (1 Bft)
20.10.2010 11:00 6,5 C 91 % 1006,6 hPa 0,0 mm 3,2 km/h (1 Bft) W 270 0 min 1 UV-I 76 W/m 11,3 km/h (2 Bft)
20.10.2010 11:10 6,6 C 91 % 1006,6 hPa 0,0 mm 3,2 km/h (1 Bft) W 270 0 min 1 UV-I 102 W/m 14,5 km/h (3 Bft)
20.10.2010 11:20 6,7 C 91 % 1006,6 hPa 0,0 mm 3,2 km/h (1 Bft) W 270 0 min 1 UV-I 190 W/m 9,7 km/h (2 Bft)
20.10.2010 11:30 6,9 C 92 % 1006,6 hPa 0,0 mm 3,2 km/h (1 Bft) W-SW 247 0 min 1 UV-I 185 W/m 11,3 km/h (2 Bft)
20.10.2010 11:40 7,1 C 91 % 1006,7 hPa 0,0 mm 3,2 km/h (1 Bft) W 270 0 min 1 UV-I 105 W/m 22,5 km/h (4 Bft)
20.10.2010 11:50 7,2 C 91 % 1006,9 hPa 0,0 mm 4,8 km/h (1 Bft) W 270 0 min 1 UV-I 144 W/m 17,7 km/h (3 Bft)
20.10.2010 12:00 7,3 C 91 % 1007,0 hPa 0,0 mm 3,2 km/h (1 Bft) W-NW 292 0 min 1 UV-I 121 W/m 9,7 km/h (2 Bft)
20.10.2010 12:10 7,4 C 91 % 1006,9 hPa 0,0 mm 4,8 km/h (1 Bft) W 270 0 min 1 UV-I 232 W/m 14,5 km/h (3 Bft)
20.10.2010 12:20 7,8 C 88 % 1007,0 hPa 0,0 mm 6,4 km/h (2 Bft) W 270 10 min 2 UV-I 401 W/m 16,1 km/h (3 Bft)
20.10.2010 12:30 8,3 C 86 % 1007,1 hPa 0,0 mm 6,4 km/h (2 Bft) W 270 10 min 1 UV-I 327 W/m 17,7 km/h (3 Bft)
20.10.2010 12:40 8,4 C 85 % 1007,1 hPa 0,0 mm 6,4 km/h (2 Bft) W-NW 292 0 min 1 UV-I 230 W/m 19,3 km/h (3 Bft)
20.10.2010 12:50 8,5 C 84 % 1007,0 hPa 0,0 mm 6,4 km/h (2 Bft) W 270 10 min 2 UV-I 411 W/m 20,9 km/h (4 Bft)
20.10.2010 13:00 8,8 C 81 % 1007,2 hPa 0,0 mm 8,0 km/h (2 Bft) W 270 10 min 2 UV-I 366 W/m 27,4 km/h (4 Bft)
20.10.2010 13:10 8,9 C 79 % 1007,2 hPa 0,0 mm 8,0 km/h (2 Bft) W 270 10 min 2 UV-I 399 W/m 22,5 km/h (4 Bft)
20.10.2010 13:20 8,9 C 77 % 1007,3 hPa 0,0 mm 8,0 km/h (2 Bft) W 270 0 min 2 UV-I 246 W/m 19,3 km/h (3 Bft)
20.10.2010 13:30 8,9 C 77 % 1007,4 hPa 0,0 mm 8,0 km/h (2 Bft) W 270 10 min 2 UV-I 598 W/m 20,9 km/h (4 Bft)
20.10.2010 13:40 9,2 C 75 % 1007,4 hPa 0,3 mm 9,7 km/h (2 Bft) W 270 0 min 2 UV-I 197 W/m 25,7 km/h (4 Bft)
20.10.2010 13:50 9,3 C 74 % 1007,4 hPa 0,0 mm 6,4 km/h (2 Bft) W 270 10 min 2 UV-I 371 W/m 17,7 km/h (3 Bft)
20.10.2010 14:00 9,6 C 72 % 1007,4 hPa 0,0 mm 4,8 km/h (1 Bft) W-NW 292 0 min 2 UV-I 204 W/m 19,3 km/h (3 Bft)
20.10.2010 14:10 9,5 C 72 % 1007,3 hPa 0,0 mm 6,4 km/h (2 Bft) W-NW 292 10 min 2 UV-I 297 W/m 22,5 km/h (4 Bft)
20.10.2010 14:20 9,3 C 72 % 1007,4 hPa 0,0 mm 8,0 km/h (2 Bft) W 270 10 min 2 UV-I 629 W/m 20,9 km/h (4 Bft)
20.10.2010 14:30 9,8 C 71 % 1007,3 hPa 0,0 mm 11,3 km/h (2 Bft) W 270 10 min 2 UV-I 629 W/m 35,4 km/h (5 Bft)
20.10.2010 14:40 9,3 C 69 % 1007,4 hPa 0,0 mm 9,7 km/h (2 Bft) W 270 10 min 2 UV-I 452 W/m 25,7 km/h (4 Bft)
20.10.2010 14:50 9,1 C 68 % 1007,5 hPa 0,0 mm 9,7 km/h (2 Bft) W 270 0 min 1 UV-I 97 W/m 27,4 km/h (4 Bft)
20.10.2010 15:00 8,9 C 71 % 1007,5 hPa 0,0 mm 8,0 km/h (2 Bft) W 270 10 min 2 UV-I 492 W/m 19,3 km/h (3 Bft)
20.10.2010 15:10 9,4 C 67 % 1008,0 hPa 0,0 mm 11,3 km/h (2 Bft) W 270 10 min 2 UV-I 585 W/m 38,6 km/h (5 Bft)
20.10.2010 15:20 8,2 C 73 % 1008,1 hPa 0,0 mm 9,7 km/h (2 Bft) W-NW 292 0 min 1 UV-I 156 W/m 30,6 km/h (5 Bft)
20.10.2010 15:30 7,6 C 75 % 1008,2 hPa 0,0 mm 6,4 km/h (2 Bft) W-NW 292 0 min 1 UV-I 186 W/m 17,7 km/h (3 Bft)
20.10.2010 15:40 7,9 C 72 % 1008,5 hPa 0,0 mm 8,0 km/h (2 Bft) W-NW 292 0 min 1 UV-I 181 W/m 20,9 km/h (4 Bft)
20.10.2010 15:50 7,9 C 70 % 1008,5 hPa 0,0 mm 9,7 km/h (2 Bft) W-NW 292 0 min 1 UV-I 137 W/m 32,2 km/h (5 Bft)
20.10.2010 16:00 8,2 C 71 % 1008,6 hPa 0,0 mm 5,7 km/h (1 Bft) W-NW 302 10 min 1 UV-I 302 W/m 19,3 km/h (3 Bft)
20.10.2010 16:10 8,2 C 72 % 1008,7 hPa 0,0 mm 9,7 km/h (2 Bft) W-NW 292 10 min 1 UV-I 320 W/m 30,6 km/h (5 Bft)
20.10.2010 16:20 8,1 C 72 % 1008,8 hPa 0,0 mm 8,0 km/h (2 Bft) W 270 10 min 1 UV-I 250 W/m 20,9 km/h (4 Bft)
20.10.2010 16:30 8,2 C 72 % 1009,1 hPa 0,0 mm 8,0 km/h (2 Bft) W-NW 292 10 min 1 UV-I 290 W/m 19,3 km/h (3 Bft)
20.10.2010 16:40 8,1 C 71 % 1009,2 hPa 0,0 mm 6,4 km/h (2 Bft) W 270 0 min 1 UV-I 88 W/m 20,9 km/h (4 Bft)
20.10.2010 16:50 7,8 C 71 % 1009,4 hPa 0,0 mm 8,0 km/h (2 Bft) W 270 10 min 1 UV-I 250 W/m 24,1 km/h (4 Bft)
20.10.2010 17:00 7,8 C 71 % 1009,5 hPa 0,0 mm 8,0 km/h (2 Bft) W 270 10 min 1 UV-I 149 W/m 19,3 km/h (3 Bft)
20.10.2010 17:10 7,5 C 72 % 1009,8 hPa 0,0 mm 8,0 km/h (2 Bft) W 270 0 min 0 UV-I 42 W/m 19,3 km/h (3 Bft)
20.10.2010 17:20 7,2 C 74 % 1009,9 hPa 0,0 mm 6,4 km/h (2 Bft) W 270 0 min 0 UV-I 49 W/m 22,5 km/h (4 Bft)
20.10.2010 17:30 7,0 C 76 % 1010,1 hPa 0,0 mm 8,0 km/h (2 Bft) W 270 0 min 0 UV-I 51 W/m 20,9 km/h (4 Bft)
20.10.2010 17:40 6,8 C 77 % 1010,1 hPa 0,0 mm 8,0 km/h (2 Bft) W 270 0 min 0 UV-I 33 W/m 20,9 km/h (4 Bft)
20.10.2010 17:50 6,7 C 77 % 1010,3 hPa 0,0 mm 8,0 km/h (2 Bft) W 270 0 min 0 UV-I 30 W/m 17,7 km/h (3 Bft)
20.10.2010 18:00 6,6 C 78 % 1010,4 hPa 0,0 mm 6,4 km/h (2 Bft) W 270 0 min 0 UV-I 16 W/m 19,3 km/h (3 Bft)
20.10.2010 18:10 6,4 C 79 % 1010,4 hPa 0,0 mm 4,8 km/h (1 Bft) W 270 10 min 0 UV-I 14 W/m 16,1 km/h (3 Bft)
20.10.2010 18:20 6,3 C 80 % 1010,5 hPa 0,0 mm 4,8 km/h (1 Bft) W 270 0 min 0 UV-I 7 W/m 14,5 km/h (3 Bft)
20.10.2010 18:30 6,2 C 80 % 1010,8 hPa 0,0 mm 4,8 km/h (1 Bft) W 270 0 min 0 UV-I 0 W/m 14,5 km/h (3 Bft)
20.10.2010 18:40 6,1 C 81 % 1011,1 hPa 0,0 mm 4,8 km/h (1 Bft) W 270 0 min 0 UV-I 0 W/m 19,3 km/h (3 Bft)
20.10.2010 18:50 6,1 C 81 % 1011,6 hPa 0,0 mm 3,2 km/h (1 Bft) W 270 0 min 0 UV-I 0 W/m 17,7 km/h (3 Bft)
20.10.2010 19:00 6,2 C 81 % 1011,5 hPa 0,0 mm 3,2 km/h (1 Bft) NW 315 0 min 0 UV-I 0 W/m 8,0 km/h (2 Bft)
20.10.2010 19:10 6,1 C 81 % 1011,8 hPa 0,0 mm 4,8 km/h (1 Bft) W 270 0 min 0 UV-I 0 W/m 17,7 km/h (3 Bft)
20.10.2010 19:20 6,0 C 81 % 1012,0 hPa 0,0 mm 4,8 km/h (1 Bft) W 270 0 min 0 UV-I 0 W/m 17,7 km/h (3 Bft)
20.10.2010 19:30 5,8 C 81 % 1012,2 hPa 0,0 mm 3,2 km/h (1 Bft) W-SW 247 0 min 0 UV-I 0 W/m 16,1 km/h (3 Bft)
20.10.2010 19:40 5,7 C 81 % 1012,3 hPa 0,0 mm 3,2 km/h (1 Bft) W-SW 247 0 min 0 UV-I 0 W/m 14,5 km/h (3 Bft)
20.10.2010 19:50 5,5 C 81 % 1012,6 hPa 0,0 mm 4,8 km/h (1 Bft) W-SW 247 0 min 0 UV-I 0 W/m 17,7 km/h (3 Bft)
20.10.2010 20:00 5,3 C 81 % 1012,7 hPa 0,0 mm 4,8 km/h (1 Bft) W-SW 247 0 min 0 UV-I 0 W/m 14,5 km/h (3 Bft)
20.10.2010 20:10 5,2 C 80 % 1012,8 hPa 0,0 mm 4,8 km/h (1 Bft) W 270 0 min 0 UV-I 0 W/m 16,1 km/h (3 Bft)
20.10.2010 20:20 5,1 C 81 % 1012,9 hPa 0,0 mm 6,4 km/h (2 Bft) W 270 0 min 0 UV-I 0 W/m 19,3 km/h (3 Bft)
20.10.2010 20:30 5,0 C 81 % 1013,1 hPa 0,0 mm 8,0 km/h (2 Bft) W-SW 247 0 min 0 UV-I 0 W/m 19,3 km/h (3 Bft)
20.10.2010 20:40 5,0 C 82 % 1013,1 hPa 0,0 mm 8,0 km/h (2 Bft) W-SW 247 0 min 0 UV-I 0 W/m 19,3 km/h (3 Bft)
20.10.2010 20:50 4,9 C 82 % 1013,2 hPa 0,0 mm 6,4 km/h (2 Bft) W 270 0 min 0 UV-I 0 W/m 19,3 km/h (3 Bft)
20.10.2010 21:00 4,9 C 82 % 1013,3 hPa 0,0 mm 8,0 km/h (2 Bft) W-SW 247 0 min 0 UV-I 0 W/m 27,4 km/h (4 Bft)
20.10.2010 21:10 4,8 C 83 % 1013,4 hPa 0,0 mm 8,0 km/h (2 Bft) W 270 0 min 0 UV-I 0 W/m 24,1 km/h (4 Bft)
20.10.2010 21:20 4,7 C 83 % 1013,5 hPa 0,0 mm 4,8 km/h (1 Bft) W 270 0 min 0 UV-I 0 W/m 12,9 km/h (3 Bft)
20.10.2010 21:30 4,7 C 84 % 1013,7 hPa 0,0 mm 4,8 km/h (1 Bft) W 270 0 min 0 UV-I 0 W/m 16,1 km/h (3 Bft)
20.10.2010 21:40 4,6 C 84 % 1013,8 hPa 0,0 mm 6,4 km/h (2 Bft) W 270 0 min 0 UV-I 0 W/m 17,7 km/h (3 Bft)
20.10.2010 21:50 4,4 C 84 % 1013,9 hPa 0,0 mm 6,4 km/h (2 Bft) SW 225 0 min 0 UV-I 0 W/m 20,9 km/h (4 Bft)
20.10.2010 22:00 4,3 C 84 % 1014,0 hPa 0,0 mm 6,4 km/h (2 Bft) W-SW 247 0 min 0 UV-I 0 W/m 17,7 km/h (3 Bft)
20.10.2010 22:10 4,3 C 84 % 1014,1 hPa 0,0 mm 6,4 km/h (2 Bft) W 270 0 min 0 UV-I 0 W/m 17,7 km/h (3 Bft)
20.10.2010 22:20 4,2 C 85 % 1014,3 hPa 0,0 mm 6,4 km/h (2 Bft) W-SW 247 0 min 0 UV-I 0 W/m 19,3 km/h (3 Bft)
20.10.2010 22:30 4,2 C 85 % 1014,7 hPa 0,0 mm 4,8 km/h (1 Bft) W-SW 247 0 min 0 UV-I 0 W/m 20,9 km/h (4 Bft)
20.10.2010 22:40 4,2 C 85 % 1014,9 hPa 0,0 mm 6,4 km/h (2 Bft) W-SW 247 0 min 0 UV-I 0 W/m 17,7 km/h (3 Bft)
20.10.2010 22:50 4,2 C 86 % 1015,3 hPa 0,0 mm 4,8 km/h (1 Bft) W 270 0 min 0 UV-I 0 W/m 16,1 km/h (3 Bft)
20.10.2010 23:00 4,3 C 87 % 1015,1 hPa 0,0 mm 6,4 km/h (2 Bft) W 270 0 min 0 UV-I 0 W/m 19,3 km/h (3 Bft)
20.10.2010 23:10 4,3 C 87 % 1015,3 hPa 0,0 mm 4,8 km/h (1 Bft) W 270 0 min 0 UV-I 0 W/m 16,1 km/h (3 Bft)
20.10.2010 23:20 4,3 C 87 % 1015,4 hPa 0,0 mm 4,8 km/h (1 Bft) W-SW 247 0 min 0 UV-I 0 W/m 16,1 km/h (3 Bft)
20.10.2010 23:30 4,2 C 87 % 1015,6 hPa 0,0 mm 4,8 km/h (1 Bft) W-SW 247 0 min 0 UV-I 0 W/m 16,1 km/h (3 Bft)
20.10.2010 23:40 4,1 C 87 % 1015,7 hPa 0,0 mm 3,2 km/h (1 Bft) W-SW 247 0 min 0 UV-I 0 W/m 11,3 km/h (2 Bft)
20.10.2010 23:50 3,9 C 87 % 1015,7 hPa 0,0 mm 3,2 km/h (1 Bft) W-SW 247 0 min 0 UV-I 0 W/m 12,9 km/h (3 Bft)
_ Min-Zeit 23:50 15:10 00:50 - 10:40 - - - - - 10:40
Minimum _ 3,9 C 67 % 1001,9 hPa - 0,0 km/h (0 Bft) - - - - - 3,2 km/h (1 Bft)
_ Max-Zeit 14:30 11:30 23:40 03:50 14:30 - - 12:20 13:50 14:20 15:10
Maximum _ 10,1 C 92 % 1015,7 hPa 0,3 mm 11,3 km/h
W (2 Bft)
- - 10 min 2 UV-I 629 W/m 38,6 km/h
W-NW (5 Bft)
Durchschnitt _ 6,8 C 85 % 1007,0 hPa #1,8 mm 5,2 km/h (1 Bft) W - #3:20 h 1 UV-I 196 W/m 16,9 km/h (3 Bft)